Time,TemperatureF,DewpointF,PressureIn,WindDirection,WindDirectionDegrees,WindSpeedMPH,WindSpeedGustMPH,Humidity,HourlyPrecipIn,Conditions,Clouds,dailyrainin,SoftwareType,DateUTC
2013-04-04 00:01:00,70.5,68.0,29.99,ESE,121,7.0,11.0,92,0.01,,,0.00,meteohub,2013-04-04 04:01:00,
2013-04-04 00:06:00,70.5,67.8,29.98,NE,50,3.0,11.0,91,0.00,,,0.00,meteohub,2013-04-04 04:06:00,
2013-04-04 00:11:00,70.5,67.8,29.99,East,96,1.0,11.0,91,0.00,,,0.00,meteohub,2013-04-04 04:11:00,
2013-04-04 00:16:00,70.5,67.8,29.98,ESE,110,4.0,11.0,91,0.00,,,0.00,meteohub,2013-04-04 04:16:00,
2013-04-04 00:21:00,70.5,67.8,29.98,NE,47,2.0,11.0,91,0.00,,,0.00,meteohub,2013-04-04 04:21:00,
2013-04-04 00:26:00,70.5,67.8,30.00,North,0,4.0,8.0,91,0.00,,,0.00,meteohub,2013-04-04 04:26:00,
2013-04-04 00:31:00,70.5,67.8,30.00,North,0,2.0,7.0,91,0.00,,,0.00,meteohub,2013-04-04 04:31:00,
2013-04-04 00:36:00,70.5,67.8,30.00,North,5,0.0,6.0,91,0.00,,,0.00,meteohub,2013-04-04 04:36:00,
2013-04-04 00:41:00,70.5,67.8,29.99,NNE,26,0.0,6.0,91,0.00,,,0.00,meteohub,2013-04-04 04:41:00,
2013-04-04 00:51:00,70.2,67.6,29.99,East,83,2.0,4.0,92,0.00,,,0.00,meteohub,2013-04-04 04:51:00,
2013-04-04 00:56:00,70.2,67.6,29.99,ESE,108,0.0,5.0,92,0.00,,,0.00,meteohub,2013-04-04 04:56:00,
2013-04-04 01:02:00,70.0,67.5,29.99,ESE,119,0.0,5.0,92,0.00,,,0.00,meteohub,2013-04-04 05:02:00,
2013-04-04 01:11:00,69.8,67.3,29.99,ESE,114,1.0,4.0,92,0.00,,,0.00,meteohub,2013-04-04 05:11:00,
2013-04-04 01:16:00,69.6,67.3,29.99,SE,138,0.0,4.0,92,0.00,,,0.00,meteohub,2013-04-04 05:16:00,
2013-04-04 01:26:00,69.6,67.3,30.01,North,5,0.0,4.0,92,0.00,,,0.00,meteohub,2013-04-04 05:26:00,
2013-04-04 01:31:00,69.6,67.3,30.01,North,5,0.0,4.0,92,0.00,,,0.00,meteohub,2013-04-04 05:31:00,
2013-04-04 01:36:00,69.6,67.3,30.01,North,5,0.0,2.0,92,0.00,,,0.00,meteohub,2013-04-04 05:36:00,
2013-04-04 01:42:00,69.6,67.3,30.01,North,5,0.0,1.0,92,0.00,,,0.00,meteohub,2013-04-04 05:42:00,
2013-04-04 01:51:00,69.4,67.3,30.00,NNE,13,0.0,1.0,93,0.00,,,0.00,meteohub,2013-04-04 05:51:00,
2013-04-04 02:01:00,69.4,67.3,29.99,ESE,109,0.0,2.0,93,0.00,,,0.00,meteohub,2013-04-04 06:01:00,
2013-04-04 02:06:00,69.3,67.1,29.99,ESE,115,1.0,2.0,93,0.00,,,0.00,meteohub,2013-04-04 06:06:00,
2013-04-04 02:11:00,69.3,67.1,29.99,ESE,119,1.0,3.0,93,0.00,,,0.00,meteohub,2013-04-04 06:11:00,
2013-04-04 02:16:00,69.4,67.3,29.99,East,92,0.0,3.0,93,0.00,,,0.00,meteohub,2013-04-04 06:16:00,
2013-04-04 02:21:00,69.4,67.3,29.99,ESE,108,2.0,3.0,93,0.00,,,0.00,meteohub,2013-04-04 06:21:00,
2013-04-04 02:31:00,69.6,67.5,29.98,SE,133,2.0,6.0,93,0.00,,,0.00,meteohub,2013-04-04 06:31:00,
2013-04-04 02:36:00,70.0,67.8,29.98,ESE,113,1.0,6.0,93,0.00,,,0.00,meteohub,2013-04-04 06:36:00,
2013-04-04 02:41:00,70.0,67.8,29.98,East,101,0.0,6.0,93,0.00,,,0.00,meteohub,2013-04-04 06:41:00,
2013-04-04 02:46:00,70.2,68.0,29.98,ESE,117,4.0,6.0,93,0.00,,,0.00,meteohub,2013-04-04 06:46:00,
2013-04-04 02:51:00,70.3,67.8,29.98,ESE,120,2.0,6.0,92,0.00,,,0.00,meteohub,2013-04-04 06:51:00,
2013-04-04 02:56:00,70.7,68.2,29.98,SE,136,0.0,8.0,92,0.00,,,0.00,meteohub,2013-04-04 06:56:00,
2013-04-04 03:06:00,71.2,68.5,29.98,SSE,150,3.0,8.0,91,0.00,,,0.00,meteohub,2013-04-04 07:06:00,
2013-04-04 03:11:00,71.4,68.7,29.98,East,101,2.0,11.0,91,0.00,,,0.00,meteohub,2013-04-04 07:11:00,
2013-04-04 03:16:00,71.6,68.5,29.98,East,93,3.0,11.0,90,0.00,,,0.00,meteohub,2013-04-04 07:16:00,
2013-04-04 03:21:00,72.0,68.9,29.98,SSE,156,2.0,11.0,90,0.00,,,0.00,meteohub,2013-04-04 07:21:00,
2013-04-04 03:31:00,72.3,68.9,29.98,SE,126,3.0,19.0,89,0.00,,,0.00,meteohub,2013-04-04 07:31:00,
2013-04-04 03:41:00,72.3,68.9,29.98,South,171,2.0,19.0,89,0.00,,,0.00,meteohub,2013-04-04 07:41:00,
2013-04-04 03:47:00,72.1,69.1,29.98,East,94,7.0,14.0,90,0.00,,,0.00,meteohub,2013-04-04 07:47:00,
2013-04-04 03:56:00,71.8,68.7,29.97,ESE,115,2.0,12.0,90,0.00,,,0.00,meteohub,2013-04-04 07:56:00,
2013-04-04 04:01:00,71.8,69.1,29.96,SE,131,4.0,15.0,91,0.00,,,0.00,meteohub,2013-04-04 08:01:00,
2013-04-04 04:06:00,71.6,68.9,29.97,SE,138,2.0,15.0,91,0.00,,,0.00,meteohub,2013-04-04 08:06:00,
2013-04-04 04:11:00,71.4,68.7,29.97,ENE,78,7.0,16.0,91,0.00,,,0.00,meteohub,2013-04-04 08:11:00,
2013-04-04 04:21:00,71.2,68.5,29.96,East,88,2.0,14.0,91,0.01,,,0.01,meteohub,2013-04-04 08:21:00,
2013-04-04 04:26:00,70.9,68.4,29.96,SSW,212,3.0,13.0,92,0.01,,,0.01,meteohub,2013-04-04 08:26:00,
2013-04-04 04:31:00,70.5,68.0,29.96,SE,128,1.0,13.0,92,0.01,,,0.01,meteohub,2013-04-04 08:31:00,
2013-04-04 04:36:00,70.2,67.6,29.95,ESE,117,3.0,13.0,92,0.01,,,0.01,meteohub,2013-04-04 08:36:00,
2013-04-04 04:41:00,70.0,67.5,29.95,SE,141,7.0,11.0,92,0.01,,,0.01,meteohub,2013-04-04 08:41:00,
2013-04-04 04:47:00,69.8,67.3,29.94,SSE,154,3.0,11.0,92,0.01,,,0.01,meteohub,2013-04-04 08:47:00,
2013-04-04 04:56:00,70.0,67.5,29.94,SSE,163,7.0,13.0,92,0.01,,,0.01,meteohub,2013-04-04 08:56:00,
2013-04-04 05:02:00,70.0,67.8,29.94,East,92,3.0,13.0,93,0.01,,,0.01,meteohub,2013-04-04 09:02:00,
2013-04-04 05:11:00,70.3,68.2,29.94,East,94,5.0,12.0,93,0.01,,,0.01,meteohub,2013-04-04 09:11:00,
2013-04-04 05:16:00,70.5,68.4,29.93,ESE,119,14.0,16.0,93,0.01,,,0.01,meteohub,2013-04-04 09:16:00,
2013-04-04 05:21:00,70.7,68.5,29.92,ESE,112,5.0,16.0,93,0.00,,,0.01,meteohub,2013-04-04 09:21:00,
2013-04-04 05:27:00,70.7,68.5,29.93,SE,126,3.0,16.0,93,0.00,,,0.01,meteohub,2013-04-04 09:27:00,
2013-04-04 05:36:00,70.9,68.7,29.92,SE,126,5.0,13.0,93,0.00,,,0.01,meteohub,2013-04-04 09:36:00,
2013-04-04 05:47:00,70.9,68.4,29.92,ESE,112,3.0,13.0,92,0.00,,,0.01,meteohub,2013-04-04 09:47:00,
2013-04-04 05:56:00,71.1,68.5,29.93,SSE,150,3.0,15.0,92,0.00,,,0.01,meteohub,2013-04-04 09:56:00,
2013-04-04 06:01:00,71.1,68.5,29.94,SE,129,5.0,15.0,92,0.00,,,0.01,meteohub,2013-04-04 10:01:00,
2013-04-04 06:07:00,71.1,68.4,29.94,East,100,1.0,15.0,91,0.00,,,0.01,meteohub,2013-04-04 10:07:00,
2013-04-04 06:16:00,71.1,68.4,29.95,SE,124,8.0,13.0,91,0.00,,,0.01,meteohub,2013-04-04 10:16:00,
2013-04-04 06:21:00,71.1,68.4,29.95,SE,133,4.0,11.0,91,0.00,,,0.01,meteohub,2013-04-04 10:21:00,
2013-04-04 06:26:00,70.7,67.6,29.92,East,96,0.0,10.0,90,0.00,,,0.01,meteohub,2013-04-04 10:26:00,
2013-04-04 06:32:00,70.3,67.3,29.94,ENE,76,3.0,13.0,90,0.01,,,0.02,meteohub,2013-04-04 10:32:00,
2013-04-04 06:41:00,69.6,66.9,29.95,South,188,2.0,10.0,91,0.02,,,0.03,meteohub,2013-04-04 10:41:00,
2013-04-04 06:46:00,69.4,66.7,29.95,South,188,8.0,8.0,91,0.02,,,0.03,meteohub,2013-04-04 10:46:00,
2013-04-04 06:51:00,69.4,66.7,29.94,East,101,7.0,12.0,91,0.02,,,0.03,meteohub,2013-04-04 10:51:00,
2013-04-04 06:56:00,69.6,66.9,29.94,SE,132,15.0,15.0,91,0.02,,,0.03,meteohub,2013-04-04 10:56:00,
2013-04-04 07:06:00,69.8,67.1,29.96,ESE,123,4.0,15.0,91,0.02,,,0.03,meteohub,2013-04-04 11:06:00,
2013-04-04 07:12:00,69.8,67.1,29.96,ESE,106,5.0,15.0,91,0.03,,,0.04,meteohub,2013-04-04 11:12:00,
2013-04-04 07:21:00,69.8,67.3,29.94,ESE,106,5.0,14.0,92,0.03,,,0.04,meteohub,2013-04-04 11:21:00,
2013-04-04 07:26:00,70.0,67.8,29.94,South,172,2.0,14.0,93,0.03,,,0.04,meteohub,2013-04-04 11:26:00,
2013-04-04 07:37:00,70.2,68.4,29.94,SE,130,3.0,14.0,94,0.02,,,0.05,meteohub,2013-04-04 11:37:00,
2013-04-04 07:46:00,70.2,68.4,29.93,West,275,4.0,14.0,94,0.02,,,0.05,meteohub,2013-04-04 11:46:00,
2013-04-04 07:51:00,70.2,68.4,29.94,SE,132,5.0,14.0,94,0.02,,,0.05,meteohub,2013-04-04 11:51:00,
2013-04-04 08:01:00,70.0,68.2,29.94,SSW,199,6.0,14.0,94,0.03,,,0.06,meteohub,2013-04-04 12:01:00,
2013-04-04 08:06:00,70.0,68.2,29.94,SE,137,3.0,12.0,94,0.03,,,0.06,meteohub,2013-04-04 12:06:00,
2013-04-04 08:17:00,70.2,68.4,29.94,SE,135,6.0,14.0,94,0.02,,,0.06,meteohub,2013-04-04 12:17:00,
2013-04-04 08:26:00,70.2,68.4,29.93,SE,134,5.0,14.0,94,0.02,,,0.06,meteohub,2013-04-04 12:26:00,
2013-04-04 08:31:00,70.3,68.5,29.93,SE,134,3.0,14.0,94,0.01,,,0.06,meteohub,2013-04-04 12:31:00,
2013-04-04 08:42:00,70.3,68.5,29.93,NE,53,2.0,17.0,94,0.02,,,0.07,meteohub,2013-04-04 12:42:00,
2013-04-04 08:51:00,70.3,68.5,29.95,East,82,0.0,15.0,94,0.02,,,0.07,meteohub,2013-04-04 12:51:00,
2013-04-04 08:56:00,70.5,68.7,29.96,South,184,0.0,10.0,94,0.01,,,0.07,meteohub,2013-04-04 12:56:00,
2013-04-04 09:01:00,70.7,68.9,29.96,East,86,6.0,10.0,94,0.01,,,0.07,meteohub,2013-04-04 13:01:00,
2013-04-04 09:07:00,70.9,69.1,29.97,SSE,150,0.0,8.0,94,0.01,,,0.07,meteohub,2013-04-04 13:07:00,
2013-04-04 09:12:00,71.1,69.3,29.97,SE,139,7.0,8.0,94,0.01,,,0.07,meteohub,2013-04-04 13:12:00,
2013-04-04 09:21:00,71.4,69.3,29.97,ESE,109,3.0,13.0,93,0.01,,,0.07,meteohub,2013-04-04 13:21:00,
2013-04-04 09:26:00,71.6,69.4,29.97,South,183,6.0,13.0,93,0.01,,,0.07,meteohub,2013-04-04 13:26:00,
2013-04-04 09:31:00,71.8,69.3,29.98,ESE,105,4.0,13.0,92,0.01,,,0.07,meteohub,2013-04-04 13:31:00,
2013-04-04 09:41:00,72.1,69.6,29.97,SE,138,5.0,15.0,92,0.00,,,0.07,meteohub,2013-04-04 13:41:00,
2013-04-04 09:46:00,72.1,69.4,29.97,SE,142,6.0,15.0,91,0.00,,,0.07,meteohub,2013-04-04 13:46:00,
2013-04-04 09:52:00,72.3,69.6,29.97,SE,139,6.0,15.0,91,0.00,,,0.07,meteohub,2013-04-04 13:52:00,
2013-04-04 10:01:00,72.3,69.6,29.98,SE,133,0.0,12.0,91,0.00,,,0.07,meteohub,2013-04-04 14:01:00,
2013-04-04 10:11:00,72.3,69.6,29.98,ESE,118,3.0,13.0,91,0.00,,,0.07,meteohub,2013-04-04 14:11:00,
2013-04-04 10:16:00,72.1,69.4,29.99,SSE,147,3.0,13.0,91,0.00,,,0.07,meteohub,2013-04-04 14:16:00,
2013-04-04 10:21:00,72.1,69.4,29.98,SE,143,6.0,13.0,91,0.00,,,0.07,meteohub,2013-04-04 14:21:00,
2013-04-04 10:27:00,72.1,69.4,29.98,SE,130,3.0,10.0,91,0.00,,,0.07,meteohub,2013-04-04 14:27:00,
2013-04-04 10:36:00,72.0,69.3,29.99,SE,136,0.0,9.0,91,0.00,,,0.07,meteohub,2013-04-04 14:36:00,
2013-04-04 10:41:00,72.1,69.4,29.99,ESE,105,0.0,6.0,91,0.00,,,0.07,meteohub,2013-04-04 14:41:00,
2013-04-04 10:47:00,72.0,69.3,30.00,SE,136,0.0,6.0,91,0.00,,,0.07,meteohub,2013-04-04 14:47:00,
2013-04-04 10:56:00,72.0,69.3,30.01,SE,136,2.0,4.0,91,0.00,,,0.07,meteohub,2013-04-04 14:56:00,
2013-04-04 11:01:00,72.0,69.4,30.01,SE,130,4.0,5.0,92,0.00,,,0.07,meteohub,2013-04-04 15:01:00,
2013-04-04 11:12:00,72.0,69.4,30.01,SSE,159,4.0,7.0,92,0.00,,,0.07,meteohub,2013-04-04 15:12:00,
2013-04-04 11:22:00,71.8,69.3,30.02,SE,128,2.0,9.0,92,0.00,,,0.07,meteohub,2013-04-04 15:22:00,
2013-04-04 11:31:00,71.8,69.6,30.01,SE,141,5.0,8.0,93,0.00,,,0.07,meteohub,2013-04-04 15:31:00,
2013-04-04 11:36:00,71.6,69.4,30.02,SE,127,2.0,7.0,93,0.00,,,0.07,meteohub,2013-04-04 15:36:00,
2013-04-04 11:41:00,71.4,69.3,30.02,ESE,117,1.0,7.0,93,0.00,,,0.07,meteohub,2013-04-04 15:41:00,
2013-04-04 11:51:00,71.2,69.4,30.02,East,90,2.0,8.0,94,0.01,,,0.08,meteohub,2013-04-04 15:51:00,
2013-04-04 11:57:00,71.1,69.3,30.02,ESE,119,1.0,11.0,94,0.02,,,0.09,meteohub,2013-04-04 15:57:00,
2013-04-04 12:06:00,70.9,69.1,30.03,SE,134,6.0,11.0,94,0.03,,,0.10,meteohub,2013-04-04 16:06:00,
2013-04-04 12:16:00,70.5,69.1,30.04,SSE,152,1.0,11.0,95,0.04,,,0.11,meteohub,2013-04-04 16:16:00,
2013-04-04 12:21:00,70.3,68.9,30.05,SE,132,3.0,11.0,95,0.05,,,0.12,meteohub,2013-04-04 16:21:00,
2013-04-04 12:31:00,69.6,68.2,30.05,SE,137,4.0,10.0,95,0.07,,,0.14,meteohub,2013-04-04 16:31:00,
2013-04-04 12:36:00,69.4,67.6,30.05,SSE,159,6.0,10.0,94,0.08,,,0.15,meteohub,2013-04-04 16:36:00,
2013-04-04 12:41:00,68.9,67.1,30.05,SE,131,0.0,10.0,94,0.09,,,0.17,meteohub,2013-04-04 16:41:00,
2013-04-04 12:46:00,68.5,66.7,30.05,South,170,1.0,10.0,94,0.10,,,0.18,meteohub,2013-04-04 16:46:00,
2013-04-04 12:52:00,68.5,66.7,30.04,ENE,78,3.0,10.0,94,0.12,,,0.20,meteohub,2013-04-04 16:52:00,
2013-04-04 13:02:00,68.2,66.7,30.04,SE,138,0.0,8.0,95,0.13,,,0.23,meteohub,2013-04-04 17:02:00,
2013-04-04 13:11:00,67.8,66.4,30.03,SSE,155,1.0,9.0,95,0.14,,,0.25,meteohub,2013-04-04 17:11:00,
2013-04-04 13:16:00,67.6,66.2,30.03,SSE,148,2.0,9.0,95,0.15,,,0.27,meteohub,2013-04-04 17:16:00,
2013-04-04 13:21:00,67.6,66.2,30.03,South,172,7.0,7.0,95,0.15,,,0.28,meteohub,2013-04-04 17:21:00,
2013-04-04 13:31:00,67.5,66.0,30.03,ESE,113,3.0,9.0,95,0.15,,,0.29,meteohub,2013-04-04 17:31:00,
2013-04-04 13:36:00,67.5,66.0,30.02,East,90,3.0,9.0,95,0.15,,,0.30,meteohub,2013-04-04 17:36:00,
2013-04-04 13:41:00,67.5,66.0,30.02,East,91,1.0,9.0,95,0.14,,,0.31,meteohub,2013-04-04 17:41:00,
2013-04-04 13:46:00,67.3,65.8,30.01,East,88,3.0,9.0,95,0.13,,,0.32,meteohub,2013-04-04 17:46:00,
2013-04-04 13:56:00,67.3,65.8,30.01,SSE,157,2.0,12.0,95,0.11,,,0.33,meteohub,2013-04-04 17:56:00,
2013-04-04 14:06:00,67.1,65.7,30.01,SE,144,6.0,12.0,95,0.09,,,0.34,meteohub,2013-04-04 18:06:00,
2013-04-04 14:11:00,67.1,65.8,30.01,East,87,6.0,11.0,96,0.08,,,0.34,meteohub,2013-04-04 18:11:00,
2013-04-04 14:21:00,67.3,66.0,30.01,SSE,153,7.0,11.0,96,0.07,,,0.35,meteohub,2013-04-04 18:21:00,
2013-04-04 14:26:00,67.3,66.0,30.01,SE,144,4.0,11.0,96,0.06,,,0.35,meteohub,2013-04-04 18:26:00,
2013-04-04 14:31:00,67.3,66.0,30.00,ESE,105,2.0,11.0,96,0.06,,,0.36,meteohub,2013-04-04 18:31:00,
2013-04-04 14:37:00,67.3,66.0,29.98,East,93,5.0,11.0,96,0.05,,,0.36,meteohub,2013-04-04 18:37:00,
2013-04-04 14:42:00,67.3,66.0,29.98,SE,145,2.0,10.0,96,0.05,,,0.36,meteohub,2013-04-04 18:42:00,
2013-04-04 14:51:00,67.3,65.8,29.99,SE,134,5.0,9.0,95,0.04,,,0.36,meteohub,2013-04-04 18:51:00,
2013-04-04 14:56:00,67.3,65.8,29.98,SE,140,8.0,9.0,95,0.03,,,0.36,meteohub,2013-04-04 18:56:00,
2013-04-04 15:02:00,67.3,65.8,29.96,ESE,123,7.0,13.0,95,0.03,,,0.36,meteohub,2013-04-04 19:02:00,
2013-04-04 15:11:00,67.3,65.8,29.94,SE,130,12.0,14.0,95,0.02,,,0.36,meteohub,2013-04-04 19:11:00,
2013-04-04 15:21:00,67.3,65.5,29.94,ESE,114,1.0,14.0,94,0.01,,,0.36,meteohub,2013-04-04 19:21:00,
2013-04-04 15:27:00,67.3,65.5,29.94,ESE,109,2.0,13.0,94,0.00,,,0.36,meteohub,2013-04-04 19:27:00,
2013-04-04 15:36:00,67.5,65.7,29.92,ESE,114,2.0,11.0,94,0.00,,,0.36,meteohub,2013-04-04 19:36:00,
2013-04-04 15:42:00,67.6,65.8,29.91,ENE,76,1.0,11.0,94,0.01,,,0.37,meteohub,2013-04-04 19:42:00,
2013-04-04 15:47:00,68.0,66.2,29.91,East,80,2.0,8.0,94,0.01,,,0.37,meteohub,2013-04-04 19:47:00,
2013-04-04 15:56:00,68.4,66.2,29.91,ESE,118,7.0,9.0,93,0.01,,,0.37,meteohub,2013-04-04 19:56:00,
2013-04-04 16:01:00,68.7,66.6,29.92,SSE,165,3.0,9.0,93,0.01,,,0.37,meteohub,2013-04-04 20:01:00,
2013-04-04 16:11:00,69.4,66.0,29.91,ESE,121,10.0,10.0,89,0.01,,,0.37,meteohub,2013-04-04 20:11:00,
2013-04-04 16:16:00,69.6,65.8,29.91,East,90,2.0,10.0,88,0.01,,,0.37,meteohub,2013-04-04 20:16:00,
2013-04-04 16:22:00,70.2,66.4,29.91,SE,138,0.0,10.0,88,0.01,,,0.37,meteohub,2013-04-04 20:22:00,
2013-04-04 16:31:00,71.2,66.2,29.90,NE,54,3.0,7.0,84,0.01,,,0.37,meteohub,2013-04-04 20:31:00,
2013-04-04 16:36:00,71.2,65.8,29.90,SE,125,2.0,7.0,83,0.00,,,0.37,meteohub,2013-04-04 20:36:00,
2013-04-04 16:42:00,71.2,65.8,29.89,ENE,70,0.0,7.0,83,0.00,,,0.37,meteohub,2013-04-04 20:42:00,
2013-04-04 16:47:00,71.8,66.4,29.89,ENE,65,2.0,7.0,83,0.00,,,0.37,meteohub,2013-04-04 20:47:00,
2013-04-04 16:57:00,73.0,66.6,29.89,East,98,3.0,7.0,80,0.00,,,0.37,meteohub,2013-04-04 20:57:00,
2013-04-04 17:06:00,74.8,66.4,29.89,East,94,2.0,6.0,75,0.00,,,0.37,meteohub,2013-04-04 21:06:00,
2013-04-04 17:11:00,75.2,66.4,29.89,ENE,58,1.0,5.0,74,0.00,,,0.37,meteohub,2013-04-04 21:11:00,
2013-04-04 17:21:00,75.6,66.7,29.89,ESE,117,2.0,5.0,74,0.00,,,0.37,meteohub,2013-04-04 21:21:00,
2013-04-04 17:27:00,75.4,65.7,29.89,ESE,117,2.0,7.0,72,0.00,,,0.37,meteohub,2013-04-04 21:27:00,
2013-04-04 17:36:00,75.6,65.8,29.90,SE,126,4.0,8.0,72,0.00,,,0.37,meteohub,2013-04-04 21:36:00,
2013-04-04 17:41:00,75.6,65.1,29.90,East,98,3.0,8.0,70,0.00,,,0.37,meteohub,2013-04-04 21:41:00,
2013-04-04 17:46:00,75.2,65.5,29.90,ESE,117,1.0,10.0,72,0.00,,,0.37,meteohub,2013-04-04 21:46:00,
2013-04-04 17:52:00,75.0,65.3,29.90,South,170,2.0,10.0,72,0.00,,,0.37,meteohub,2013-04-04 21:52:00,
2013-04-04 18:01:00,74.5,65.3,29.90,East,96,9.0,9.0,73,0.00,,,0.37,meteohub,2013-04-04 22:01:00,
2013-04-04 18:06:00,73.9,64.8,29.89,ESE,123,5.0,9.0,73,0.00,,,0.37,meteohub,2013-04-04 22:06:00,
2013-04-04 18:12:00,73.6,64.8,29.90,ESE,121,1.0,9.0,74,0.00,,,0.37,meteohub,2013-04-04 22:12:00,
2013-04-04 18:21:00,73.2,64.8,29.89,East,84,0.0,7.0,75,0.00,,,0.37,meteohub,2013-04-04 22:21:00,
2013-04-04 18:27:00,73.2,65.1,29.90,ESE,119,0.0,7.0,76,0.00,,,0.37,meteohub,2013-04-04 22:27:00,
2013-04-04 18:36:00,73.0,64.9,29.89,East,85,2.0,5.0,76,0.00,,,0.37,meteohub,2013-04-04 22:36:00,
2013-04-04 18:41:00,72.9,65.3,29.88,SE,129,3.0,4.0,77,0.00,,,0.37,meteohub,2013-04-04 22:41:00,
2013-04-04 18:47:00,72.7,65.1,29.88,ESE,103,1.0,6.0,77,0.00,,,0.37,meteohub,2013-04-04 22:47:00,
2013-04-04 18:56:00,72.3,65.1,29.88,ESE,107,0.0,4.0,78,0.00,,,0.37,meteohub,2013-04-04 22:56:00,
2013-04-04 19:01:00,72.3,65.5,29.87,ESE,107,0.0,3.0,79,0.00,,,0.37,meteohub,2013-04-04 23:01:00,
2013-04-04 19:11:00,72.0,65.1,29.88,ESE,107,0.0,2.0,79,0.00,,,0.37,meteohub,2013-04-04 23:11:00,
2013-04-04 19:16:00,71.8,65.3,29.88,ESE,107,1.0,2.0,80,0.00,,,0.37,meteohub,2013-04-04 23:16:00,
2013-04-04 19:26:00,71.6,65.1,29.89,ESE,107,0.0,2.0,80,0.00,,,0.37,meteohub,2013-04-04 23:26:00,
2013-04-04 19:31:00,71.4,65.3,29.90,ESE,107,0.0,2.0,81,0.00,,,0.37,meteohub,2013-04-04 23:31:00,
2013-04-04 19:36:00,71.2,65.5,29.91,ESE,107,0.0,1.0,82,0.00,,,0.37,meteohub,2013-04-04 23:36:00,
2013-04-04 19:41:00,70.9,65.1,29.92,ESE,107,0.0,1.0,82,0.00,,,0.37,meteohub,2013-04-04 23:41:00,
2013-04-04 19:46:00,70.5,64.8,29.92,ESE,107,0.0,1.0,82,0.00,,,0.37,meteohub,2013-04-04 23:46:00,
2013-04-04 19:56:00,70.3,64.9,29.92,ESE,107,0.0,1.0,83,0.00,,,0.37,meteohub,2013-04-04 23:56:00,
2013-04-04 20:01:00,70.2,65.1,29.92,ESE,107,0.0,1.0,84,0.00,,,0.37,meteohub,2013-04-05 00:01:00,
2013-04-04 20:11:00,70.0,65.3,29.91,ESE,107,0.0,1.0,85,0.00,,,0.37,meteohub,2013-04-05 00:11:00,
2013-04-04 20:17:00,69.6,64.9,29.91,ESE,107,0.0,1.0,85,0.00,,,0.37,meteohub,2013-04-05 00:17:00,
2013-04-04 20:27:00,69.4,64.8,29.91,ESE,107,0.0,1.0,85,0.00,,,0.37,meteohub,2013-04-05 00:27:00,
2013-04-04 20:36:00,69.3,64.9,29.92,ESE,107,0.0,1.0,86,0.00,,,0.37,meteohub,2013-04-05 00:36:00,
2013-04-04 20:41:00,69.3,65.3,29.93,ESE,104,0.0,1.0,87,0.00,,,0.37,meteohub,2013-04-05 00:41:00,
2013-04-04 20:46:00,69.3,65.3,29.94,NW,314,2.0,2.0,87,0.00,,,0.37,meteohub,2013-04-05 00:46:00,
2013-04-04 20:51:00,69.3,65.3,29.94,NW,321,0.0,3.0,87,0.00,,,0.37,meteohub,2013-04-05 00:51:00,
2013-04-04 20:56:00,69.1,65.1,29.94,NW,318,0.0,4.0,87,0.00,,,0.37,meteohub,2013-04-05 00:56:00,
2013-04-04 21:06:00,69.1,65.1,29.93,NW,318,0.0,3.0,87,0.00,,,0.37,meteohub,2013-04-05 01:06:00,
2013-04-04 21:11:00,69.1,65.1,29.93,NNW,332,0.0,1.0,87,0.00,,,0.37,meteohub,2013-04-05 01:11:00,
2013-04-04 21:21:00,69.1,65.3,29.94,East,81,0.0,1.0,88,0.00,,,0.37,meteohub,2013-04-05 01:21:00,
2013-04-04 21:27:00,69.1,65.3,29.94,East,82,0.0,1.0,88,0.00,,,0.37,meteohub,2013-04-05 01:27:00,
2013-04-04 21:36:00,69.1,65.7,29.93,SSE,160,2.0,2.0,89,0.00,,,0.37,meteohub,2013-04-05 01:36:00,
2013-04-04 21:41:00,69.1,65.7,29.92,ESE,109,2.0,3.0,89,0.00,,,0.37,meteohub,2013-04-05 01:41:00,
2013-04-04 21:46:00,68.9,65.5,29.93,East,101,0.0,3.0,89,0.00,,,0.37,meteohub,2013-04-05 01:46:00,
2013-04-04 21:51:00,68.7,65.3,29.92,SE,126,2.0,5.0,89,0.00,,,0.37,meteohub,2013-04-05 01:51:00,
2013-04-04 22:01:00,68.7,65.3,29.91,ESE,118,0.0,3.0,89,0.00,,,0.37,meteohub,2013-04-05 02:01:00,
2013-04-04 22:06:00,68.5,65.5,29.91,ESE,111,0.0,3.0,90,0.00,,,0.37,meteohub,2013-04-05 02:06:00,
2013-04-04 22:11:00,68.5,65.5,29.91,ESE,111,0.0,2.0,90,0.00,,,0.37,meteohub,2013-04-05 02:11:00,
2013-04-04 22:21:00,68.4,65.3,29.93,ESE,111,0.0,2.0,90,0.00,,,0.37,meteohub,2013-04-05 02:21:00,
2013-04-04 22:26:00,68.4,65.7,29.94,ESE,111,1.0,2.0,91,0.00,,,0.37,meteohub,2013-04-05 02:26:00,
2013-04-04 22:36:00,68.4,65.7,29.94,SE,128,0.0,2.0,91,0.00,,,0.37,meteohub,2013-04-05 02:36:00,
2013-04-04 22:41:00,68.4,65.7,29.94,SE,128,0.0,3.0,91,0.00,,,0.37,meteohub,2013-04-05 02:41:00,
2013-04-04 22:46:00,68.4,65.7,29.94,SE,135,1.0,3.0,91,0.00,,,0.37,meteohub,2013-04-05 02:46:00,
2013-04-04 22:51:00,68.4,65.7,29.93,ESE,121,0.0,3.0,91,0.00,,,0.37,meteohub,2013-04-05 02:51:00,
2013-04-04 22:56:00,68.2,65.5,29.93,SE,143,0.0,4.0,91,0.00,,,0.37,meteohub,2013-04-05 02:56:00,
2013-04-04 23:01:00,68.2,65.5,29.92,SE,142,0.0,6.0,91,0.00,,,0.37,meteohub,2013-04-05 03:01:00,
2013-04-04 23:06:00,68.2,65.5,29.93,SE,142,0.0,6.0,91,0.00,,,0.37,meteohub,2013-04-05 03:06:00,
2013-04-04 23:12:00,68.2,65.5,29.93,SE,142,0.0,2.0,91,0.00,,,0.37,meteohub,2013-04-05 03:12:00,
2013-04-04 23:21:00,68.0,65.3,29.94,SE,132,0.0,4.0,91,0.00,,,0.37,meteohub,2013-04-05 03:21:00,
2013-04-04 23:27:00,68.0,65.7,29.93,SE,126,0.0,5.0,92,0.00,,,0.37,meteohub,2013-04-05 03:27:00,
2013-04-04 23:36:00,67.8,65.5,29.93,SSE,151,0.0,6.0,92,0.00,,,0.37,meteohub,2013-04-05 03:36:00,
2013-04-04 23:41:00,67.8,65.5,29.92,SE,138,1.0,6.0,92,0.00,,,0.00,meteohub,2013-04-05 03:41:00,
2013-04-04 23:51:00,67.6,65.3,29.90,East,87,0.0,3.0,92,0.00,,,0.00,meteohub,2013-04-05 03:51:00,
2013-04-04 23:56:00,67.6,65.3,29.90,ESE,116,1.0,3.0,92,0.00,,,0.00,meteohub,2013-04-05 03:56:00,